Jackson, TN

2:34 AM CDT on September 21, 2019 (GMT -0500)
McKellar-Sipes Regional

Weather History for KMKL - July, 2019

Change the Weather History Date:

Saturday, July 13, 2019

  Actual Average Record
Temperature  
Mean Temperature 82 °F 80 °F  
Max Temperature 91 °F 91 °F 104 °F (1954)
Min Temperature 73 °F 69 °F 57 °F (2013)
Degree Days  
Heating Degree Days 0 0  
Month to date heating degree days 0 0  
Since 1 June heating degree days 1 2  
Since 1 July heating degree days 0 0  
Cooling Degree Days 17 15  
Month to date cooling degree days 220 188  
Year to date cooling degree days 801 742  
Since 1 June cooling degree days 541 527  
Growing Degree Days 31 (Base 50)    
Moisture  
Dew Point 75 °F    
Average Humidity 79    
Maximum Humidity 94    
Minimum Humidity 63    
Precipitation  
Precipitation 0.74 in 0.15 in 3.22 in (2010)
Month to date precipitation 2.85 1.91  
Year to date precipitation 35.67 30.29  
Sea Level Pressure  
Sea Level Pressure 30.02 in    
Wind  
Wind Speed 4 mph (ESE)    
Max Wind Speed 20 mph    
Max Gust Speed 28 mph    
Visibility 9 miles    
Events Fog , Rain , Thunderstorm    
T = Trace of Precipitation, MM = Missing Value Source: NWS Daily Summary

Daily Weather History Graph

Daily Weather History Graph

Search for Another Location

Airport or City:

Astronomy

Jul. 13, 2019 Rise Set
Actual Time 5:50 AM CDT 8:12 PM CDT
Civil Twilight 5:20 AM CDT 8:41 PM CDT
Nautical Twilight 4:44 AM CDT 9:17 PM CDT
Astronomical Twilight 4:04 AM CDT 9:57 PM CDT
Moon 5:36 PM CDT (7/13) 3:08 AM CDT (7/13)
Length of Visible Light 15h 21m
Length of Day
14h 22m
Waxing Gibbous, 90% of the Moon is Illuminated
Jul 13
Waxing Gibbous
Jul 16
Full
Jul 24
Last Quarter
Jul 31
New
Aug 7
First Quarter

Hourly Weather History & Observations

Time (CDT) Temp. Heat Index Dew Point Humidity Pressure Visibility Wind Dir Wind Speed Gust Speed Precip Events Conditions
12:53 AM 75.9 °F - 72.0 °F 87% 29.94 in 10.0 mi East 3.5 mph - N/A   Partly Cloudy
1:53 AM 75.9 °F - 73.0 °F 91% 29.93 in 10.0 mi Calm Calm - N/A   Clear
2:53 AM 75.0 °F - 72.0 °F 90% 29.92 in 10.0 mi Calm Calm - N/A   Clear
3:53 AM 75.0 °F - 73.0 °F 94% 29.92 in 10.0 mi Variable 4.6 mph - N/A   Clear
4:53 AM 75.0 °F - 73.0 °F 94% 29.94 in 9.0 mi SSE 3.5 mph - N/A   Clear
5:53 AM 73.0 °F - 72.0 °F 96% 29.96 in 4.0 mi Calm Calm - N/A   Clear
6:53 AM 75.9 °F - 73.9 °F 94% 29.98 in 6.0 mi Calm Calm - N/A   Clear
7:53 AM 79.0 °F - 73.9 °F 84% 30.00 in 10.0 mi Variable 3.5 mph - N/A   Clear
8:53 AM 82.0 °F 87.9 °F 73.9 °F 76% 30.02 in 10.0 mi South 6.9 mph - N/A   Clear
9:53 AM 82.9 °F 89.4 °F 73.9 °F 74% 30.03 in 10.0 mi South 5.8 mph - N/A   Clear
10:53 AM 86.0 °F 95.1 °F 75.0 °F 70% 30.03 in 10.0 mi South 5.8 mph - N/A   Partly Cloudy
11:37 AM 87.1 °F 96.3 °F 75.0 °F 67% 30.04 in 10.0 mi Variable 5.8 mph - N/A   Mostly Cloudy
11:48 AM 87.8 °F 97.6 °F 75.2 °F 66% 30.04 in 10.0 mi South 6.9 mph - N/A   Mostly Cloudy
11:53 AM 87.1 °F 95.4 °F 73.9 °F 65% 30.03 in 10.0 mi SW 4.6 mph - N/A   Scattered Clouds
12:53 PM 89.1 °F 100.2 °F 75.9 °F 65% 30.01 in 10.0 mi East 6.9 mph - N/A   Partly Cloudy
1:53 PM 89.1 °F 99.1 °F 75.0 °F 63% 30.00 in 10.0 mi East 4.6 mph - N/A   Mostly Cloudy
2:53 PM 89.1 °F 99.1 °F 75.0 °F 63% 29.99 in 10.0 mi SSE 4.6 mph - N/A   Overcast
3:30 PM 82.9 °F 90.8 °F 75.9 °F 79% 30.02 in 3.0 mi South 16.1 mph 27.6 mph 0.07 in Rain , Thunderstorm Thunderstorms and Rain
3:32 PM 81.0 °F 87.3 °F 75.9 °F 85% 30.03 in 1.5 mi SSE 11.5 mph 27.6 mph 0.15 in Rain , Thunderstorm Heavy Thunderstorms and Rain
3:41 PM 77.0 °F - 73.9 °F 90% 30.04 in 0.5 mi Variable 3.5 mph 18.4 mph 0.52 in Fog , Rain , Thunderstorm Heavy Thunderstorms and Rain
3:53 PM 77.0 °F - 75.0 °F 94% 30.01 in 0.8 mi NNE 6.9 mph - 0.73 in Rain , Thunderstorm Heavy Thunderstorms and Rain
3:59 PM 77.0 °F - 75.9 °F 96% 30.02 in 2.5 mi NNE 9.2 mph - 0.00 in Rain , Thunderstorm Light Thunderstorms and Rain
4:06 PM 77.0 °F - 75.9 °F 96% 30.02 in 10.0 mi NE 4.6 mph - 0.01 in Rain , Thunderstorm Light Thunderstorms and Rain
4:13 PM 78.1 °F - 75.9 °F 93% 30.02 in 10.0 mi ENE 3.5 mph - 0.01 in Rain Light Rain
4:28 PM 78.1 °F - 75.9 °F 93% 30.01 in 10.0 mi Calm Calm - 0.01 in Thunderstorm Scattered Clouds
4:53 PM 79.0 °F - 77.0 °F 94% 30.00 in 10.0 mi ENE 5.8 mph - 0.01 in   Partly Cloudy
5:44 PM 79.0 °F - 78.1 °F 97% 30.01 in 10.0 mi East 3.5 mph - N/A Thunderstorm Scattered Clouds
5:53 PM 80.1 °F 86.4 °F 78.1 °F 94% 30.00 in 10.0 mi East 3.5 mph - N/A Thunderstorm Mostly Cloudy
6:11 PM 81.0 °F 88.6 °F 78.1 °F 91% 30.01 in 10.0 mi Calm Calm - N/A   Mostly Cloudy
6:53 PM 80.1 °F 85.8 °F 77.0 °F 90% 30.01 in 10.0 mi Calm Calm - N/A   Mostly Cloudy
7:18 PM 80.1 °F 86.4 °F 78.1 °F 94% 30.04 in 10.0 mi Calm Calm - N/A Thunderstorm Thunderstorm
7:39 PM 79.0 °F - 77.0 °F 94% 30.04 in 10.0 mi SE 3.5 mph - N/A   Mostly Cloudy
7:53 PM 78.1 °F - 77.0 °F 96% 30.04 in 10.0 mi Variable 4.6 mph - N/A Thunderstorm Thunderstorm
8:18 PM 77.0 °F - 75.0 °F 94% 30.06 in 10.0 mi ESE 4.6 mph - N/A   Scattered Clouds
8:27 PM 77.0 °F - 75.0 °F 94% 30.07 in 10.0 mi East 3.5 mph - N/A Thunderstorm Scattered Clouds
8:42 PM 75.9 °F - 75.0 °F 97% 30.07 in 10.0 mi ESE 3.5 mph - N/A   Partly Cloudy
8:53 PM 75.9 °F - 75.0 °F 97% 30.07 in 10.0 mi ESE 3.5 mph - N/A   Clear
9:53 PM 75.9 °F - 73.9 °F 94% 30.08 in 10.0 mi SSE 4.6 mph - N/A   Partly Cloudy
10:53 PM 75.9 °F - 73.0 °F 91% 30.06 in 10.0 mi SSE 6.9 mph - N/A   Mostly Cloudy
11:53 PM 75.0 °F - 73.0 °F 94% 30.09 in 10.0 mi East 4.6 mph - N/A   Clear